Simultaneous Nadir Overpasses (SNOs) Predictions

Prediction of SNOs between AURA and NPP Satellite Orbit:

Table of predicted SNOs for the next 14.0 days since TLE Epoch: 3/9/2018
Index Date (AURA) Time (AURA) Lat,Lon (AURA) SZA (AURA ) Date (NPP) Time (NPP) Lat,Lon (NPP) SZA (NPP ) Distance(km) Time Diff (sec)
1 03/11/2018 12:15:01 79.70,-105.33 96.07 03/11/2018 12:14:54 79.69,-105.41 96.09 1.63 7
2 03/11/2018 13:04:23 -79.89, 63.79 84.25 03/11/2018 13:05:33 -79.89, 63.74 84.29 1.11 70
3 03/14/2018 03:42:08 -79.57,-158.03 84.80 03/14/2018 03:41:10 -79.56,-158.07 84.75 0.98 58
4 03/14/2018 04:31:28 79.77, 11.14 94.88 03/14/2018 04:31:48 79.77, 11.04 94.89 2.24 20
5 03/16/2018 19:58:34 -79.64, -41.59 85.99 03/16/2018 19:58:03 -79.64, -41.64 85.96 1.03 31
6 03/16/2018 20:47:55 79.81, 127.32 93.75 03/16/2018 20:48:42 79.81, 127.19 93.74 2.56 47
7 03/19/2018 12:15:01 -79.72, 74.84 87.18 03/19/2018 12:14:57 -79.71, 74.80 87.17 0.76 4
8 03/19/2018 13:04:21 79.92,-115.96 92.51 03/19/2018 13:05:35 79.91,-116.08 92.47 2.63 74
9 03/22/2018 03:42:07 79.55, 21.85 92.02 03/22/2018 03:41:13 79.54, 21.76 92.08 2.02 54




NCC Satellite Simultaneous Nadir Overpasses (SNOs) Prediction Service
